FW2916 Weather Reports


Display with metric or nautical units.
time (UTC)temp
F
wind
direction
speed
MPH
gust
MPH
rain 1hr
in
rain 24hr
in
rain mn
in
humidity
%
barometer
mb
20260902071548 77 0 0.0 2.0 0.00 0.00 0.00 77 1014.2
20260902070044 77 0 0.0 1.0 0.00 0.00 0.00 76 1014.3
20260902064544 77 0 0.0 0.0 0.00 0.00 0.00 76 1014.6
20260902063040 76 148 0.0 0.0 0.00 0.00 0.00 78 1014.5
20260902061556 74 0 0.0 0.0 0.00 0.00 0.00 79 1014.5
20260902060054 75 0 0.0 0.0 0.00 0.00 0.00 78 1014.3
20260902054542 76 0 0.0 0.0 0.00 0.00 0.00 75 1014.4
20260902053052 76 0 0.0 0.0 0.00 0.00 0.00 74 1014.2
20260902051547 76 0 0.0 0.0 0.00 0.00 0.00 74 1014.3
20260902050044 76 0 0.0 0.0 0.00 0.00 0.00 75 1014.3
20260902044542 76 0 0.0 0.0 0.00 0.00 0.00 74 1014.4
20260902043040 77 0 0.0 0.0 0.00 0.00 0.00 73 1014.4
20260902041604 77 0 0.0 0.0 0.00 0.00 0.00 72 1014.4
20260902040048 77 0 0.0 0.0 0.00 0.00 0.00 73 1014.4
20260902034542 77 0 0.0 0.0 0.00 0.00 0.00 75 1014.5
20260902033051 77 0 0.0 0.0 0.00 0.00 0.00 73 1014.4
20260902031559 78 0 0.0 0.0 0.00 0.00 0.00 72 1014.4
20260902030056 79 0 0.0 0.0 0.00 0.00 0.00 72 1014.1
20260902024604 79 0 0.0 0.0 0.00 0.00 0.00 71 1014.0
20260902023101 80 0 0.0 0.0 0.00 0.00 0.00 71 1014.0
20260902021555 81 0 0.0 0.0 0.00 0.00 0.00 69 1014.0
20260902020040 82 0 0.0 0.0 0.00 0.00 0.00 68 1013.7
20260902014550 83 0 0.0 0.0 0.00 0.00 0.00 66 1013.6
20260902013045 84 0 0.0 0.0 0.00 0.00 0.00 64 1013.5
20260902011541 85 0 0.0 0.0 0.00 0.00 0.00 62 1013.4
20260902010040 87 0 0.0 0.0 0.00 0.00 0.00 59 1013.4
20260902004553 89 0 0.0 0.0 0.00 0.00 0.00 55 1013.4
20260902003049 91 0 0.0 0.0 0.00 0.00 0.00 51 1013.4
20260902001541 93 0 0.0 0.0 0.00 0.00 0.00 48 1013.5
20260902000040 94 0 0.0 1.0 0.00 0.00 0.00 46 1013.6
20260901234602 96 0 0.0 3.0 0.00 0.00 0.00 43 1013.6
20260901233103 98 205 0.0 5.0 0.00 0.00 0.00 41 1013.7
20260901231542 99 207 1.0 7.0 0.00 0.00 0.00 40 1013.7
20260901230041 99 0 0.0 5.0 0.00 0.00 0.00 40 1013.6
20260901224553 99 203 2.0 5.0 0.00 0.00 0.00 39 1013.6
20260901223047 100 244 1.0 10.0 0.00 0.00 0.00 39 1013.7
20260901221545 100 131 2.0 10.0 0.00 0.00 0.00 38 1013.7
20260901220044 100 233 2.0 10.0 0.00 0.00 0.00 38 1013.8
20260901214604 100 269 2.0 9.0 0.00 0.00 0.00 38 1013.8
20260901213115 100 214 3.0 10.0 0.00 0.00 0.00 38 1013.8
20260901211542 100 209 3.0 10.0 0.00 0.00 0.00 38 1014.0
20260901210051 101 187 2.0 9.0 0.00 0.00 0.00 38 1014.2
20260901204550 101 66 2.0 7.0 0.00 0.00 0.00 37 1014.4
20260901203113 101 146 2.0 9.0 0.00 0.00 0.00 37 1014.5
20260901201542 101 318 2.0 7.0 0.00 0.00 0.00 39 1014.6
20260901200043 100 186 2.0 9.0 0.00 0.00 0.00 38 1014.8
20260901194557 101 130 2.0 10.0 0.00 0.00 0.00 39 1015.0
20260901193047 100 224 1.0 10.0 0.00 0.00 0.00 40 1015.0
20260901191552 100 180 3.0 8.0 0.00 0.00 0.00 37 1015.2
20260901190052 100 219 3.0 8.0 0.00 0.00 0.00 39 1015.3
20260901184550 100 143 1.0 9.0 0.00 0.00 0.00 41 1015.4
20260901183052 100 0 1.0 6.0 0.00 0.00 0.00 43 1015.8
20260901181543 99 253 2.0 7.0 0.00 0.00 0.00 40 1015.9
20260901180051 98 277 2.0 7.0 0.00 0.00 0.00 43 1016.0
20260901174547 98 288 3.0 8.0 0.00 0.00 0.00 42 1016.2
20260901173055 97 244 2.0 8.0 0.00 0.00 0.00 45 1016.3
20260901171550 96 243 2.0 8.0 0.00 0.00 0.00 49 1016.4
20260901170043 96 246 2.0 7.0 0.00 0.00 0.00 49 1016.6
20260901164551 95 184 1.0 7.0 0.00 0.00 0.00 49 1016.8
20260901163052 94 135 2.0 7.0 0.00 0.00 0.00 49 1016.8
20260901161551 94 243 2.0 6.0 0.00 0.00 0.00 50 1016.8
20260901160043 92 191 1.0 6.0 0.00 0.00 0.00 53 1017.0
20260901154541 91 224 2.0 7.0 0.00 0.00 0.00 52 1017.0
20260901153101 90 0 0.0 5.0 0.00 0.00 0.00 55 1016.9
20260901151547 89 266 1.0 6.0 0.00 0.00 0.00 57 1017.0
20260901150041 88 0 1.0 6.0 0.00 0.00 0.00 59 1017.1
20260901144554 87 106 1.0 5.0 0.00 0.00 0.00 62 1017.1
20260901143052 85 235 0.0 5.0 0.00 0.00 0.00 63 1017.2
20260901141548 84 198 2.0 6.0 0.00 0.00 0.00 63 1017.3
20260901140055 83 203 0.0 4.0 0.00 0.00 0.00 67 1017.3
20260901134554 82 0 0.0 3.0 0.00 0.00 0.00 69 1017.3
20260901133052 80 0 0.0 1.0 0.00 0.00 0.00 71 1017.2
20260901131545 78 0 0.0 0.0 0.00 0.00 0.00 74 1017.2
20260901130042 75 0 0.0 1.0 0.00 0.00 0.00 77 1017.1
20260901124552 75 0 0.0 0.0 0.00 0.00 0.00 77 1017.0
20260901123051 74 0 0.0 0.0 0.00 0.00 0.00 76 1016.8
20260901121542 74 0 0.0 0.0 0.00 0.00 0.00 76 1016.8
20260901120040 74 0 0.0 3.0 0.00 0.00 0.00 75 1016.6
20260901114551 75 0 0.0 2.0 0.00 0.00 0.00 74 1016.3
20260901113045 76 0 0.0 3.0 0.00 0.00 0.00 73 1016.3
20260901111542 76 227 0.0 2.0 0.00 0.00 0.00 72 1016.2
20260901110053 77 200 1.0 4.0 0.00 0.00 0.00 71 1016.1
20260901104547 77 217 0.0 4.0 0.00 0.00 0.00 70 1015.9
20260901103042 77 148 1.0 4.0 0.00 0.00 0.00 70 1015.9
20260901101609 77 148 0.0 4.0 0.00 0.00 0.00 71 1015.7
20260901100053 76 188 0.0 4.0 0.00 0.00 0.00 71 1015.7
20260901094556 75 0 0.0 1.0 0.00 0.00 0.00 74 1015.6
20260901093048 73 0 0.0 0.0 0.00 0.00 0.00 77 1015.4
20260901091601 74 0 0.0 1.0 0.00 0.00 0.00 76 1015.3
20260901090051 74 0 0.0 1.0 0.00 0.00 0.00 76 1015.2
20260901084553 74 0 0.0 2.0 0.00 0.00 0.00 77 1015.0
20260901083041 72 0 0.0 2.0 0.00 0.00 0.00 81 1015.1
20260901081548 70 0 0.0 0.0 0.00 0.00 0.00 86 1015.0
20260901080100 70 0 0.0 0.0 0.00 0.00 0.00 84 1014.9
20260901074554 70 0 0.0 0.0 0.00 0.00 0.00 84 1014.9
20260901073046 71 0 0.0 0.0 0.00 0.00 0.00 83 1015.1